Duchifat 3
1 44854U 19089C   25066.79352728  .00044579  00000-0  12293-2 0  9992
2 44854  36.9461 227.2826 0005427 122.6042 237.5236 15.36138281288464
TO-108
1 44881U 19093C   25066.79397835  .00001803  00000-0  21609-3 0  9990
2 44881  97.7997 144.3986 0014086 174.1441 185.9941 14.85233857282152
FloripaSat 1
1 44885U 19093G   25066.81558319  .00007883  00000-0  69542-3 0  9995
2 44885  97.8183 154.3333 0011393 157.0445 203.1288 14.96634512282717
RS-44
1 44909U 19096E   25066.34698064  .00000013  00000-0  45198-5 0  9996
2 44909  82.5187 289.9066 0217845 155.6762 205.4811 12.79738883242632
UPMSat 2
1 46276U 20061E   25066.78014183  .00049346  00000-0  72917-3 0  9990
2 46276  97.2572 138.8828 0001265 173.3253 186.8019 15.55186086250820
SALSAT
1 46495U 20068K   25066.85237365  .00011127  00000-0  51175-3 0  9996
2 46495  97.8520  40.7420 0014055 121.2440 239.0173 15.20443680244274
CubeSX-Sirius-HSE
1 47951U 21022V   25066.88127661  .00089230  00000-0  12373-2 0  9991
2 47951  97.4299 334.9705 0003379 271.5206  88.5662 15.56752078219108
CubeSX-HSE
1 47952U 21022W   25066.91839300  .00092291  00000-0  12500-2 0  9999
2 47952  97.4301 335.2054 0003351 255.5640 104.5244 15.57375520219129
KSU-Cubesat
1 47954U 21022Y   25066.73161591  .00536836  00000-0  18888-2 0  9994
2 47954  97.4223 339.8546 0004992 144.2415 215.9192 15.87873983219124
GRBAlpha
1 47959U 21022AD  25066.81845676  .00098044  00000-0  13383-2 0  9990
2 47959  97.4287 335.2513 0003386 269.0076  91.0791 15.57144674217938
Orbicraft-Zorkiy
1 47960U 21022AE  25066.77932805  .00224451  00000-0  17043-2 0  9998
2 47960  97.4260 338.6839 0002304 172.7869 187.3427 15.71650319218815
TUBIN
1 48900U 21059X   25066.81365835  .00045514  00000-0  81163-3 0  9997
2 48900  97.6686 229.1723 0004985 227.7468 132.3360 15.49944544205467
LEDSAT
1 49069U 21073D   25066.74911204  .00053659  00000-0  10593-2 0  9996
2 49069  97.3993 145.2853 0011827  64.8148 295.4327 15.46915956196861
CUTE
1 49263U 21088D   25066.24348016  .00014835  00000-0  34459-3 0  9999
2 49263  97.4600 140.0275 0008963 218.1084 141.9530 15.42418360189860
TeikyoSat 4
1 49396U 21102B   25066.35360366  .00002671  00000-0  18227-3 0  9997
2 49396  97.4242 108.1533 0014449  96.5431 263.7443 15.06949379182353
Z-Sat
1 49399U 21102E   25066.89167132  .00005761  00000-0  32755-3 0  9990
2 49399  97.3948 111.2250 0020053  71.3227 289.0179 15.13086115182806
KOSEN 1
1 49402U 21102H   25066.62805718  .00009333  00000-0  45722-3 0  9992
2 49402  97.3856 113.7180 0017540  51.9591 308.3223 15.18232694183023
HO-113
1 50466U 21131B   25066.86527643  .00000937  00000-0  30791-3 0  9991
2 50466  98.5106 156.6996 0005018  67.0254 293.1463 14.40593933167959
IRIS-A
1 51044U 22002BN  25066.44860267  .00092594  00000-0  10474-2 0  9993
2 51044  97.3392 142.1379 0004239 175.4589 184.6708 15.62129956175039
Foresail-1
1 52766U 22057AL  25066.35944583  .00080835  00000-0  94815-3 0  9996
2 52766  97.5996 209.2865 0007137 261.5659  98.4789 15.61208596155051
SNUGLITE 2
1 52899U 22065F   25066.38293537  .00002253  00000-0  45110-3 0  9993
2 52899  98.1514 209.3802 0008249  54.8377 305.3596 14.62747285142716
IO-117
1 53106U 22080B   25051.21822557 -.00000003  00000-0  00000+0 0  9995
2 53106  70.1434 106.3440 0008542  48.0089 312.1297  6.42557744 61200
UmKA 1 (RS40S)
1 57172U 23091G   25066.86032335  .00007419  00000-0  41647-3 0  9992
2 57172  97.5723 122.7719 0013577 299.9751  60.0132 15.13555446 93295
CubeBel-2 (EU11S)
1 57175U 23091K   25066.90838588  .00012339  00000-0  63484-3 0  9994
2 57175  97.5722 123.4640 0011725 309.7333  50.2866 15.16522695 93341
VERONIKA
1 58261U 23174F   25066.79261852  .00069363  00000-0  13270-2 0  9990
2 58261  97.4235 148.9844 0005943  20.4427 339.7059 15.47814246 74078
KAFASAT
1 58317U 23174BP  25066.76045137  .00298856  00000-0  20130-2 0  9999
2 58317  97.4089 152.9153 0005787 297.2948  62.7727 15.74259235 74350
ENSO
1 58470U 23185J   25066.85086354  .00043973  00000-0  96186-3 0  9990
2 58470  97.3853 139.7170 0008215  64.9733 295.2367 15.43988504 70511
EIRSAT-1
1 58472U 23185L   25066.87632094  .00059000  00000-0  10970-2 0  9996
2 58472  97.3848 140.5560 0006636  63.5444 296.6487 15.48676151 70570
SONATE-2
1 59112U 24043Q   25066.34906175  .00020708  00000-0  69169-3 0  9996
2 59112  97.4985 196.0175 0012157  90.6823 269.5810 15.30985877 55896
MO-122
1 60209U 24125G   25066.38155875  .00020685  00000-0  68104-3 0  9995
2 60209  97.2929 279.2658 0021937 113.4771 246.8779 15.31282194 37517
GRBBeta
1 60237U 24128C   25066.40556872  .00007341  00000-0  57364-3 0  9994
2 60237  61.9929  47.6162 0043170  36.2362 324.1638 15.01186440 36050
Curium One
1 60242U 24128H   25066.17341688  .00011921  00000-0  88475-3 0  9997
2 60242  61.9831  47.8909 0043489  31.3064 329.0603 15.02681573 36039
ROBUSTA-3A
1 60243U 24128J   25066.34960078  .00012018  00000-0  90233-3 0  9990
2 60243  61.9898  47.8155 0041666  29.2009 331.1398 15.02300880 36052
CatSat
1 60246U 24125J   25066.59414158  .00013614  00000-0  48956-3 0  9998
2 60246  97.2712 279.6365 0046493  69.5144 291.1077 15.27690483 35629
HYPERVIEW-1G (RS66S)
1 61772U 24199AP  25066.88442349  .00024460  00000-0  84016-3 0  9997
2 61772  97.3700 296.1806 0015556 162.0416 198.1377 15.29997597 62608
AO-123
1 61781U 24199AY  25066.77241485  .00011094  00000-0  42843-3 0  9994
2 61781  97.3707 295.7352 0016815 164.5800 195.5954 15.26299789 62561
ZIMSAT 2
1 61783U 24199BA  25066.89814167  .00036283  00000-0  11674-2 0  9996
2 61783  97.3696 296.3083 0016406 161.3839 198.8007 15.32012911 65768
POEM 4 (BGS ARPIT)
1 62461U 24253C   25066.67556713  .00250190  34074-4  77235-3 0  9990
2 62461  55.2163 295.4967 0007647 118.3413 241.8414 15.91326386 10571
HADES-R (SO-124)
1 62690U 25009CK  25066.65489536  .00037219  00000-0  17255-2 0  9998
2 62690  97.4169 148.3751 0002416  77.6604 282.4901 15.19964967  7834
